Regional Weather Roundup
Issued by NWS Newport/Morehead, NC

Current Version | Previous Version | Text Only | Print | Product List | Glossary On
Versions: 1 2 3 4 5 6 7 8 9 10 11 12 13 14 15 16 17 18 19 20 21 22 23 24 25 26 27 28 29 30 31 32 33 34 35 36 37 38 39 40 41 42 43 44 45 46 47 48 49 50
000
ASUS42 KMHX 041613
RWRMHX
WEATHER ROUNDUP FOR EASTERN NORTH CAROLINA
NATIONAL WEATHER SERVICE NEWPORT/MOREHEAD CITY NC
1200 PM EDT TUE AUG 04 2015

NOTE: "FAIR" INDICATES FEW OR NO CLOUDS BELOW 12,000 FEET
WITH NO SIGNIFICANT WEATHER AND/OR OBSTRUCTIONS TO VISIBILITY

NCZ015>017-031-032-045>047-102-103-041700-
NORTH COAST

CITY           SKY/WX    TMP DP  RH WIND       PRES   REMARKS
EDENTON          N/A     86  73  65 S10       30.01S
ELIZABETH CITY MOSUNNY   88  74  63 SW18G25   30.00F
KITTY HAWK     MOSUNNY   87  75  68 SW9G17    30.01S
MANTEO         MOSUNNY   88  71  57 SW15      30.02F

$$

NCZ045>047-081-094-103-104-041700-
CENTRAL COAST

CITY           SKY/WX    TMP DP  RH WIND       PRES   REMARKS
FRISCO         CLOUDY    80  72  76 SW20G29   30.05F
SWANQUARTER      N/A     77 N/A N/A SW6G21    30.00S

$$

NCZ095-097-098-100-101-041700-
SOUTHERN COAST

CITY           SKY/WX    TMP DP  RH WIND       PRES   REMARKS
BEAUFORT       LGT RAIN  81  77  88 S16G24    30.04R
CEDAR ISLAND     N/A     84 N/A N/A S20       30.09S
JACKSONVILLE   CLOUDY    83  76  79 S12       30.02S
PINEY ISLAND   CLOUDY   N/A N/A N/A S13G20    30.04R
WILMINGTON     CLOUDY    81  73  76 SE14      30.00S


$$

NCZ011>013-027>030-043-044-078>080-089-090>093-098-041700-
COASTAL PLAIN

CITY           SKY/WX    TMP DP  RH WIND       PRES   REMARKS
AHOSKIE        SUNNY     89  72  57 S12       29.99F
CLINTON        PTSUNNY   85  75  72 E5        30.01S
ELIZABETHTOWN  PTSUNNY   83  75  75 SE12G20   30.00S
GOLDSBORO      PTSUNNY   88  74  64 VRB6      29.99F
GREENVILLE     HVY RAIN  75  73  94 SE6G24    30.05R VSB 3/4
HAVELOCK       CLOUDY    78  73  84 S6        30.05R
KENANSVILLE    PTSUNNY  N/A N/A N/A SE6       30.03S
KINSTON        PTSUNNY   88  73  62 S16       30.01F
NEW BERN       CLOUDY    79  72  79 S7        30.05S
RICHLANDS      CLOUDY    81  72  74 S5        30.02F
ROCKY MOUNT    MOSUNNY   90  73  57 S14G20    30.00F
WASHINGTON     HVY RAIN  78  74  88 S8G16     30.03R
WHITEVILLE     CLOUDY    80  74  79 E10       29.97F

$$

AMZ130-135-150-152-154-156-158-170-250-252-270-ANZ085-086-088-633-658-670-041700-
MARINE OBSERVATIONS

STATION/POSITION TIME  TEMP    WIND        PRES    WAVE   SWELL
                       AIR SEA DIR/SP/G            HT/PER HT/PER
                 (UTC) (F)     (DEG/KT/KT) (MB)    (FT/S) (FT/S)
CHESAPEAKE LIGHT 1600   81     210/ 14/ 15 1015.5
64 E VA BEACH    1550   81 81  220/ 17/ 19 1015.5    4/ 6   2/11
DUCK             1500   84 62  210/ 12/ 17 1015.5
2 E DUCK         1511      71                N/A     2/11   2/11
OREGON INLET     1500   82 81  200/ 18/ 21 1016.9
13E OREGON INLT  1600      81                N/A     3/ 5   2/11
HATTERAS CG      1500   83 78  180/  4/  7 1017.3
DIAMOND BUOY     1550   78 84  220/ 29/ 35 1017.4    4/ 7   2/ 7
CAPE LOOKOUT     1600   80     190/ 18/ 22 1017.2
BEAUFORT LAB     1500   81 80  190/ 18/ 21 1016.2
30 SE NEW RVR IN NOT AVBL
27 SE WRIGHTSVLE 1500   78 82  180/ 21/ 25   N/A
5 SE WRIGHTSVLE  1508   81 81  170/ 19/ 25 1015.7
225 S CAPE HAT   1550   83 81  200/ 12/ 16 1019.9    5/ 6   3/ 6
41 SE CHARLESTON 1550   81 83  250/ 14/ 17 1014.3    6/ 7   3/ 8

$$



USA.gov is the U.S. government's official web portal to all federal, state and local government web resources and services.